Location: Marcé
(47.5801°N, 0.3280°W)
Time: 17:55:07
(UTC+01:00)

Tiros 1 - Pass Details

Date: 09 December 2021
Orbit: 629 x 664 km, 48.4° (Epoch: 26 January)

Event Time Altitude Azimuth Distance (km) Brightness Sun altitude
Rises 23:37:05 0° 284° (WNW) 2,946 - -60.9°
Reaches altitude 10° 23:39:45 10° 271° (W) 2,040 - -61.2°
Maximum altitude 23:43:29 24° 218° (SW) 1,348 - -61.6°
Drops below altitude 10° 23:47:14 10° 165° (SSE) 2,050 - -62.0°
Sets 23:49:56 0° 152° (SSE) 2,963 - -62.2°
